{"data":{"norad_id":60946,"intl_designator":"2024-156B","name":"YAOGAN-43 02B","alt_names":[],"object_type":"PAYLOAD","status":"ACTIVE","operator":null,"country":"PRC","launch_date":"2024-09-03","launch_site_code":"XICLF","launch_vehicle":null,"mission":null,"orbit_class":"UNKNOWN","rcs_meters":null,"size_class":null,"mass_kg":null,"dimensions":null,"purposes":[],"wikipedia_slug":null,"has_3d_model":false,"image_url":null,"decayed_at":null,"tle_current":{"epoch":"2026-05-24T23:27:00.797184Z","epoch_age_seconds":70338,"freshness":"FRESH","line1":"1 60946U 24156B   26144.97709256  .00009994  00000+0  41606-3 0  9995","line2":"2 60946  34.9954 343.9916 0004738 289.5924  70.4279 15.22972681 95902","mean_motion":15.22972681,"eccentricity":0.0004738,"inclination_deg":34.9954,"raan_deg":343.9916,"arg_perigee_deg":289.5924,"mean_anomaly_deg":70.4279,"bstar":0.00041606,"rev_number":9590,"period_min":94.551925846397,"perigee_km":493.62245175295,"apogee_km":500.13721770554,"semimajor_km":6875.0168347292,"source":"CELESTRAK","updated_at":"2026-05-25T13:38:02.266059Z"}}}